Volver al catálogo

FENGYUN 2A AKM

ActivoMEO
NORAD 25611·ROCKET BODY·🇨🇳 China

Lanzado Jun 10, 1997 desde Xichang Satellite Launch Center

Loading…

Próximos Pases (próximas 24 horas)

TLE

ActualizadoSource: Space-Track

Época: Sep 14, 2026, 05:43 UTC

1 25611U 97029C   26257.23828380 -.00000261  00000-0  00000-0 0  9998
2 25611  13.8363 352.5643 0223504  82.8971 297.5798  1.02878357 49506

Sigue FENGYUN 2A AKM en tiempo real con AllMySat

Download on the App Store